TimeEST,TemperatureF,Dew PointF,Humidity,Sea Level PressureIn,VisibilityMPH,Wind Direction,Wind SpeedMPH,Gust SpeedMPH,PrecipitationIn,Events,Conditions,WindDirDegrees,DateUTC
12:54 AM,42.1,39.9,92,30.20,10.0,Calm,Calm,-,N/A,,Overcast,0,2012-11-20 05:54:00
1:54 AM,46.0,39.9,79,30.20,10.0,NNW,3.5,-,N/A,,Overcast,330,2012-11-20 06:54:00
2:40 AM,46.4,39.2,76,30.19,10.0,North,4.6,-,N/A,,Overcast,10,2012-11-20 07:40:00
2:51 AM,46.4,39.2,76,30.19,10.0,Calm,Calm,-,N/A,,Overcast,0,2012-11-20 07:51:00
2:54 AM,46.0,39.0,76,30.19,10.0,Calm,Calm,-,N/A,,Overcast,0,2012-11-20 07:54:00
3:54 AM,45.0,39.0,80,30.19,10.0,Variable,3.5,-,N/A,,Overcast,0,2012-11-20 08:54:00
4:54 AM,45.0,39.0,80,30.19,10.0,NNW,3.5,-,N/A,,Overcast,340,2012-11-20 09:54:00
5:54 AM,45.0,39.0,80,30.19,10.0,Calm,Calm,-,N/A,,Overcast,0,2012-11-20 10:54:00
6:54 AM,45.0,39.0,80,30.19,8.0,Calm,Calm,-,N/A,,Overcast,0,2012-11-20 11:54:00
7:54 AM,45.0,39.9,82,30.20,8.0,NNW,3.5,-,N/A,,Overcast,340,2012-11-20 12:54:00
8:54 AM,46.9,41.0,80,30.19,8.0,North,3.5,-,N/A,,Overcast,350,2012-11-20 13:54:00
9:54 AM,48.9,42.1,77,30.19,9.0,NE,3.5,-,N/A,,Overcast,40,2012-11-20 14:54:00
10:54 AM,51.1,43.0,74,30.18,10.0,Calm,Calm,-,N/A,,Overcast,0,2012-11-20 15:54:00
11:54 AM,54.0,44.1,69,30.15,9.0,NNW,3.5,-,N/A,,Overcast,340,2012-11-20 16:54:00
12:54 PM,55.0,44.1,67,30.13,10.0,West,3.5,-,N/A,,Overcast,280,2012-11-20 17:54:00
1:54 PM,55.9,43.0,62,30.11,10.0,NNE,3.5,-,N/A,,Clear,20,2012-11-20 18:54:00
2:54 PM,55.9,43.0,62,30.10,10.0,Calm,Calm,-,N/A,,Scattered Clouds,0,2012-11-20 19:54:00
3:54 PM,55.0,43.0,64,30.10,10.0,Calm,Calm,-,N/A,,Clear,0,2012-11-20 20:54:00
4:54 PM,52.0,45.0,77,30.10,10.0,Calm,Calm,-,N/A,,Clear,0,2012-11-20 21:54:00
5:54 PM,48.0,44.1,86,30.12,10.0,Calm,Calm,-,N/A,,Clear,0,2012-11-20 22:54:00
6:54 PM,46.9,44.1,90,30.13,10.0,Calm,Calm,-,N/A,,Clear,0,2012-11-20 23:54:00
7:54 PM,45.0,43.0,93,30.14,10.0,Calm,Calm,-,N/A,,Partly Cloudy,0,2012-11-21 00:54:00
8:54 PM,46.0,44.1,93,30.14,10.0,Calm,Calm,-,N/A,,Overcast,0,2012-11-21 01:54:00
9:54 PM,43.0,43.0,100,30.14,10.0,Calm,Calm,-,N/A,,Partly Cloudy,0,2012-11-21 02:54:00
10:54 PM,39.9,39.9,100,30.14,8.0,Calm,Calm,-,N/A,,Clear,0,2012-11-21 03:54:00
11:54 PM,39.0,39.0,100,30.14,7.0,Calm,Calm,-,N/A,,Clear,0,2012-11-21 04:54:00